Socorro, NM

11:44 PM MST on January 18, 2018 (GMT -0700)
Socorro Municipal

Weather History for KONM - December, 2013

Change the Weather History Date:

Monday, December 9, 2013

  Actual Average Record
Temperature  
Mean Temperature 32 °F -  
Max Temperature 43 °F 52 °F 62 °F (2012)
Min Temperature 20 °F 23 °F 19 °F (2011)
Degree Days  
Heating Degree Days 33    
Moisture  
Dew Point 13 °F    
Average Humidity 52    
Maximum Humidity 78    
Minimum Humidity 20    
Precipitation  
Precipitation 0.00 in - - ()
Sea Level Pressure  
Sea Level Pressure 30.18 in    
Wind  
Wind Speed 11 mph (NNW)    
Max Wind Speed 24 mph    
Max Gust Speed 31 mph    
Visibility 10 miles    
Events Snow    
Averages and records for this station are not official NWS values.
T = Trace of Precipitation, MM = Missing Value Source: NWS Daily Summary

Daily Weather History Graph

Daily Weather History Graph

Search for Another Location

Airport or City:

Trip Planner

Search our weather history database for the weather conditions in past years. The results will help you decide how hot, cold, wet, or windy it might be!

Date:

Astronomy

Dec. 09, 2013 Rise Set
Actual Time 7:01 AM MST 4:58 PM MST
Civil Twilight 6:34 AM MST 5:26 PM MST
Nautical Twilight 6:02 AM MST 5:57 PM MST
Astronomical Twilight 5:32 AM MST 6:27 PM MST
Moon 12:12 PM MST (12/9) No Moon Set
Length of Visible Light 10h 52m
Length of Day
9h 56m
First Quarter, 52% of the Moon is Illuminated
Dec 9
First Quarter
Dec 17
Full
Dec 25
Last Quarter
Jan 1
New
Jan 7
First Quarter

Hourly Weather History & Observations

Time (MST) Temp. Windchill Dew Point Humidity Pressure Visibility Wind Dir Wind Speed Gust Speed Precip Events Conditions
12:15 AM 28.9 °F 21.9 °F 20.3 °F 70% 29.98 in 10.0 mi WNW 6.9 mph - N/A   Clear
12:35 AM 27.7 °F 20.4 °F 19.9 °F 73% 29.98 in 10.0 mi NW 6.9 mph - N/A   Clear
12:55 AM 28.4 °F 22.2 °F 19.6 °F 70% 29.97 in 10.0 mi NW 5.8 mph - N/A   Clear
1:15 AM 26.1 °F 21.9 °F 19.9 °F 78% 29.98 in 10.0 mi WNW 3.5 mph - N/A   Clear
1:35 AM 26.8 °F 20.2 °F 19.9 °F 75% 29.98 in 10.0 mi North 5.8 mph - N/A   Clear
1:55 AM 27.3 °F 19.9 °F 19.8 °F 73% 29.98 in 10.0 mi North 6.9 mph - N/A   Clear
2:15 AM 27.5 °F 21.1 °F 19.8 °F 73% 29.98 in 10.0 mi North 5.8 mph - N/A   Clear
2:35 AM 26.6 °F 20.0 °F 19.9 °F 76% 29.99 in 10.0 mi North 5.8 mph - N/A   Clear
2:55 AM 26.2 °F 18.6 °F 19.8 °F 76% 29.99 in 10.0 mi North 6.9 mph - N/A   Clear
3:35 AM 26.2 °F 20.7 °F 18.9 °F 74% 29.99 in 10.0 mi NNW 4.6 mph - N/A   Clear
3:55 AM 26.8 °F 17.1 °F 18.5 °F 71% 29.99 in 10.0 mi NW 10.4 mph - N/A   Scattered Clouds
4:15 AM 27.7 °F 19.6 °F 18.0 °F 67% 29.99 in 10.0 mi NNW 8.1 mph - N/A   Clear
4:35 AM 27.5 °F 18.0 °F 18.1 °F 68% 29.99 in 10.0 mi North 10.4 mph - N/A   Clear
4:55 AM 27.3 °F 17.1 °F 18.5 °F 69% 30.00 in 10.0 mi North 11.5 mph - N/A   Scattered Clouds
5:15 AM 27.0 °F 17.3 °F 19.0 °F 72% 30.01 in 10.0 mi North 10.4 mph - N/A   Scattered Clouds
5:35 AM 26.6 °F 18.2 °F 19.4 °F 74% 30.02 in 10.0 mi NNW 8.1 mph - N/A   Clear
5:55 AM 26.8 °F 17.7 °F 19.2 °F 73% 30.02 in 10.0 mi North 9.2 mph - N/A   Clear
6:15 AM 27.5 °F 18.0 °F 19.0 °F 71% 30.03 in 10.0 mi North 10.4 mph - N/A   Clear
6:35 AM 27.3 °F 17.7 °F 19.0 °F 71% 30.04 in 10.0 mi North 10.4 mph - N/A   Scattered Clouds
6:55 AM 27.0 °F 18.7 °F 19.4 °F 73% 30.04 in 10.0 mi North 8.1 mph - N/A   Scattered Clouds
7:15 AM 27.5 °F 17.4 °F 20.3 °F 74% 30.05 in 10.0 mi North 11.5 mph 16.1 mph N/A   Scattered Clouds
7:35 AM 29.1 °F 19.4 °F 20.3 °F 70% 30.06 in 10.0 mi North 11.5 mph 16.1 mph N/A   Scattered Clouds
7:55 AM 31.1 °F 20.1 °F 19.9 °F 63% 30.07 in 10.0 mi North 16.1 mph 23.0 mph N/A   Scattered Clouds
8:15 AM 30.6 °F 19.8 °F 20.1 °F 65% 30.08 in 10.0 mi NNW 15.0 mph 23.0 mph N/A   Scattered Clouds
8:35 AM 30.2 °F 18.5 °F 19.4 °F 64% 30.09 in 10.0 mi North 17.3 mph 21.9 mph N/A   Clear
8:55 AM 32.0 °F 21.2 °F 20.1 °F 62% 30.11 in 10.0 mi North 16.1 mph 23.0 mph N/A   Clear
9:15 AM 32.9 °F 22.0 °F 20.7 °F 61% 30.11 in 10.0 mi NNW 17.3 mph 26.5 mph N/A   Clear
9:35 AM 32.0 °F 21.6 °F 22.1 °F 67% 30.13 in 10.0 mi North 15.0 mph 23.0 mph N/A   Clear
9:55 AM 30.9 °F 20.2 °F 22.8 °F 72% 30.15 in 10.0 mi North 15.0 mph 24.2 mph N/A   Clear
10:15 AM 32.9 °F 23.7 °F 23.9 °F 69% 30.16 in 10.0 mi North 12.7 mph 25.3 mph N/A   Mostly Cloudy
10:35 AM 34.3 °F 24.2 °F 24.3 °F 67% 30.16 in 10.0 mi North 16.1 mph 24.2 mph N/A   Overcast
10:55 AM 35.6 °F 25.9 °F 23.5 °F 62% 30.17 in 10.0 mi NNW 16.1 mph 23.0 mph N/A   Overcast
11:15 AM 36.5 °F 27.0 °F 23.0 °F 58% 30.16 in 10.0 mi North 16.1 mph 25.3 mph N/A Snow Light Snow
11:35 AM 37.4 °F 27.2 °F 22.1 °F 54% 30.15 in 10.0 mi North 19.6 mph 28.8 mph N/A   Overcast
11:55 AM 37.8 °F 29.0 °F 22.8 °F 55% 30.15 in 10.0 mi North 15.0 mph 24.2 mph N/A Snow Light Snow
12:15 PM 37.8 °F 28.6 °F 21.9 °F 53% 30.15 in 10.0 mi NNE 16.1 mph 24.2 mph N/A   Overcast
12:35 PM 39.4 °F 31.8 °F 21.0 °F 48% 30.15 in 10.0 mi NNE 12.7 mph 18.4 mph N/A   Overcast
12:55 PM 40.5 °F 35.1 °F 19.8 °F 44% 30.14 in 10.0 mi NNW 8.1 mph - N/A   Mostly Cloudy
1:15 PM 42.1 °F 36.6 °F 16.2 °F 35% 30.13 in 10.0 mi North 9.2 mph - N/A   Scattered Clouds
1:35 PM 43.0 °F 33.5 °F 10.4 °F 27% 30.13 in 10.0 mi North 24.2 mph 27.6 mph N/A   Clear
1:55 PM 42.4 °F 34.1 °F 9.5 °F 26% 30.15 in 10.0 mi NNW 18.4 mph 28.8 mph N/A   Clear
2:15 PM 42.8 °F 34.0 °F 7.7 °F 24% 30.17 in 10.0 mi NW 20.7 mph 29.9 mph N/A   Clear
2:35 PM 42.6 °F 34.0 °F 6.1 °F 22% 30.18 in 10.0 mi NNW 19.6 mph 27.6 mph N/A   Clear
2:55 PM 42.3 °F 34.4 °F 3.2 °F 20% 30.19 in 10.0 mi NNW 16.1 mph 31.1 mph N/A   Clear
3:15 PM 41.9 °F 33.7 °F 2.8 °F 20% 30.20 in 10.0 mi NNW 17.3 mph 25.3 mph N/A   Clear
3:35 PM 41.7 °F 32.9 °F 2.7 °F 20% 30.21 in 10.0 mi NNW 19.6 mph 27.6 mph N/A   Clear
3:55 PM 37.6 °F 28.4 °F 7.5 °F 29% 30.23 in 10.0 mi North 16.1 mph 25.3 mph N/A   Clear
4:15 PM 36.3 °F 27.5 °F 6.6 °F 29% 30.24 in 10.0 mi North 13.8 mph 24.2 mph N/A   Clear
4:35 PM 34.5 °F 24.5 °F 5.9 °F 30% 30.27 in 10.0 mi North 16.1 mph - N/A   Clear
4:55 PM 32.4 °F 23.5 °F 4.8 °F 31% 30.28 in 10.0 mi North 11.5 mph 19.6 mph N/A   Clear
5:15 PM 31.8 °F 23.3 °F 4.3 °F 31% 30.29 in 10.0 mi North 10.4 mph - N/A   Clear
5:35 PM 30.4 °F 21.0 °F 4.3 °F 33% 30.30 in 10.0 mi North 11.5 mph - N/A   Clear
5:55 PM 29.3 °F 19.1 °F 4.5 °F 35% 30.31 in 10.0 mi NNW 12.7 mph - N/A   Clear
6:15 PM 28.8 °F 19.5 °F 4.1 °F 35% 30.32 in 10.0 mi NNW 10.4 mph - N/A   Clear
6:35 PM 28.0 °F 17.0 °F 4.1 °F 36% 30.33 in 10.0 mi NNW 13.8 mph - N/A   Clear
6:55 PM 27.5 °F 17.4 °F 4.1 °F 37% 30.35 in 10.0 mi NNW 11.5 mph - N/A   Clear
7:15 PM 27.0 °F 15.2 °F 4.1 °F 38% 30.36 in 10.0 mi NNW 15.0 mph - N/A   Clear
7:35 PM 26.6 °F 15.2 °F 4.5 °F 39% 30.37 in 10.0 mi NNW 13.8 mph - N/A   Clear
7:55 PM 26.2 °F 13.4 °F 4.3 °F 39% 30.37 in 10.0 mi NNW 17.3 mph 23.0 mph N/A   Clear
8:15 PM 25.9 °F 13.8 °F 4.1 °F 39% 30.39 in 10.0 mi NNW 15.0 mph 23.0 mph N/A   Clear
8:35 PM 25.7 °F 13.5 °F 4.1 °F 40% 30.39 in 10.0 mi NNW 15.0 mph 23.0 mph N/A   Clear
8:55 PM 25.2 °F 12.9 °F 4.3 °F 41% 30.39 in 10.0 mi NNW 15.0 mph - N/A   Clear
9:15 PM 24.6 °F 11.7 °F 4.8 °F 43% 30.39 in 10.0 mi NNW 16.1 mph 20.7 mph N/A   Clear
9:35 PM 24.6 °F 13.8 °F 4.8 °F 43% 30.41 in 10.0 mi NNW 11.5 mph 19.6 mph N/A   Clear
9:55 PM 24.4 °F 13.0 °F 4.8 °F 43% 30.41 in 10.0 mi North 12.7 mph 18.4 mph N/A   Clear
10:15 PM 23.9 °F 13.5 °F 5.2 °F 45% 30.41 in 10.0 mi NNW 10.4 mph - N/A   Clear
10:35 PM 23.7 °F 12.6 °F 5.0 °F 45% 30.40 in 10.0 mi NNW 11.5 mph - N/A   Clear
10:55 PM 23.2 °F 12.6 °F 4.6 °F 45% 30.42 in 10.0 mi NNW 10.4 mph - N/A   Clear
11:15 PM 22.8 °F 13.6 °F 4.5 °F 45% 30.43 in 10.0 mi North 8.1 mph - N/A   Clear
11:35 PM 21.2 °F 11.7 °F 5.9 °F 52% 30.43 in 10.0 mi NNE 8.1 mph - N/A   Clear
11:55 PM 20.1 °F 8.8 °F 6.4 °F 55% 30.43 in 10.0 mi North 10.4 mph - N/A   Clear